TimeCDT,TemperatureF,Dew PointF,Humidity,Sea Level PressureIn,VisibilityMPH,Wind Direction,Wind SpeedMPH,Gust SpeedMPH,PrecipitationIn,Events,Conditions,WindDirDegrees,DateUTC
12:15 AM,68.0,66.2,94,30.10,10.0,Calm,Calm,-,N/A,,Partly Cloudy,0,2013-06-16 05:15:00
12:35 AM,68.0,64.4,88,30.09,10.0,Calm,Calm,-,N/A,,Mostly Cloudy,0,2013-06-16 05:35:00
12:55 AM,66.2,64.4,94,30.09,10.0,Calm,Calm,-,N/A,,Scattered Clouds,0,2013-06-16 05:55:00
1:15 AM,66.2,64.4,94,30.09,10.0,Calm,Calm,-,N/A,,Scattered Clouds,0,2013-06-16 06:15:00
1:35 AM,66.2,64.4,94,30.09,10.0,Calm,Calm,-,N/A,,Mostly Cloudy,0,2013-06-16 06:35:00
1:55 AM,66.2,64.4,94,30.09,10.0,Calm,Calm,-,N/A,,Overcast,0,2013-06-16 06:55:00
2:15 AM,66.2,64.4,94,30.08,10.0,Calm,Calm,-,N/A,,Overcast,0,2013-06-16 07:15:00
2:35 AM,66.2,64.4,94,30.08,9.0,Calm,Calm,-,N/A,,Mostly Cloudy,0,2013-06-16 07:35:00
2:55 AM,66.2,64.4,94,30.08,10.0,Calm,Calm,-,N/A,,Mostly Cloudy,0,2013-06-16 07:55:00
3:15 AM,66.2,64.4,94,30.08,10.0,Calm,Calm,-,N/A,,Mostly Cloudy,0,2013-06-16 08:15:00
3:35 AM,66.2,64.4,94,30.09,10.0,Calm,Calm,-,N/A,,Mostly Cloudy,0,2013-06-16 08:35:00
3:55 AM,64.4,64.4,100,30.09,10.0,Calm,Calm,-,N/A,,Mostly Cloudy,0,2013-06-16 08:55:00
4:15 AM,64.4,64.4,100,30.09,10.0,Calm,Calm,-,N/A,,Mostly Cloudy,0,2013-06-16 09:15:00
4:35 AM,64.4,62.6,94,30.09,10.0,Calm,Calm,-,N/A,,Mostly Cloudy,0,2013-06-16 09:35:00
4:55 AM,64.4,62.6,94,30.10,10.0,Calm,Calm,-,N/A,,Overcast,0,2013-06-16 09:55:00
5:15 AM,64.4,62.6,94,30.11,10.0,Calm,Calm,-,N/A,,Overcast,0,2013-06-16 10:15:00
5:35 AM,64.4,64.4,100,30.12,10.0,Calm,Calm,-,N/A,,Overcast,0,2013-06-16 10:35:00
5:55 AM,66.2,64.4,94,30.12,10.0,Calm,Calm,-,N/A,,Mostly Cloudy,0,2013-06-16 10:55:00
6:15 AM,64.4,64.4,100,30.12,9.0,Calm,Calm,-,N/A,,Mostly Cloudy,0,2013-06-16 11:15:00
6:35 AM,66.2,64.4,94,30.12,10.0,Calm,Calm,-,N/A,,Mostly Cloudy,0,2013-06-16 11:35:00
6:55 AM,66.2,64.4,94,30.13,10.0,Calm,Calm,-,N/A,,Scattered Clouds,0,2013-06-16 11:55:00
7:15 AM,68.0,64.4,88,30.13,10.0,Calm,Calm,-,N/A,,Partly Cloudy,0,2013-06-16 12:15:00
7:35 AM,71.6,64.4,78,30.13,10.0,NE,4.6,-,N/A,,Mostly Cloudy,40,2013-06-16 12:35:00
7:55 AM,71.6,66.2,83,30.14,10.0,Calm,Calm,-,N/A,,Scattered Clouds,0,2013-06-16 12:55:00
8:15 AM,71.6,66.2,83,30.14,10.0,NE,3.5,-,N/A,Rain,Light Rain,40,2013-06-16 13:15:00
8:35 AM,73.4,66.2,78,30.14,10.0,Calm,Calm,-,N/A,,Clear,0,2013-06-16 13:35:00
8:55 AM,75.2,66.2,73,30.13,10.0,Calm,Calm,-,N/A,,Clear,0,2013-06-16 13:55:00
9:15 AM,77.0,66.2,69,30.13,10.0,Calm,Calm,-,N/A,,Clear,0,2013-06-16 14:15:00
9:35 AM,77.0,66.2,69,30.12,10.0,Calm,Calm,-,N/A,,Partly Cloudy,0,2013-06-16 14:35:00
9:55 AM,80.6,66.2,61,30.12,10.0,Calm,Calm,-,N/A,,Partly Cloudy,0,2013-06-16 14:55:00
10:15 AM,82.4,66.2,58,30.11,10.0,SW,4.6,-,N/A,,Partly Cloudy,230,2013-06-16 15:15:00
10:35 AM,80.6,64.4,58,30.11,10.0,SW,3.5,-,N/A,,Mostly Cloudy,230,2013-06-16 15:35:00
10:55 AM,82.4,66.2,58,30.10,10.0,SSW,5.8,-,N/A,,Mostly Cloudy,210,2013-06-16 15:55:00
11:15 AM,82.4,66.2,58,30.10,10.0,SW,6.9,-,N/A,,Partly Cloudy,230,2013-06-16 16:15:00
11:35 AM,84.2,68.0,58,30.09,10.0,SSW,10.4,23.0,N/A,,Scattered Clouds,210,2013-06-16 16:35:00
11:55 AM,84.2,68.0,58,30.09,10.0,SW,10.4,19.6,N/A,,Partly Cloudy,230,2013-06-16 16:55:00
12:15 PM,84.2,69.8,62,30.08,10.0,WSW,8.1,18.4,N/A,,Partly Cloudy,240,2013-06-16 17:15:00
12:35 PM,84.2,68.0,58,30.08,10.0,WSW,10.4,16.1,N/A,,Partly Cloudy,240,2013-06-16 17:35:00
12:55 PM,84.2,69.8,62,30.07,10.0,SW,9.2,16.1,N/A,,Partly Cloudy,230,2013-06-16 17:55:00
1:15 PM,84.2,68.0,58,30.06,10.0,WSW,13.8,-,N/A,,Scattered Clouds,240,2013-06-16 18:15:00
1:35 PM,86.0,68.0,55,30.05,10.0,SW,10.4,19.6,N/A,,Partly Cloudy,230,2013-06-16 18:35:00
1:55 PM,86.0,68.0,55,30.04,10.0,SW,10.4,17.3,N/A,,Clear,230,2013-06-16 18:55:00
2:15 PM,86.0,68.0,55,30.04,10.0,SSW,10.4,-,N/A,,Clear,200,2013-06-16 19:15:00
2:35 PM,86.0,68.0,55,30.03,10.0,SSW,10.4,-,N/A,,Clear,200,2013-06-16 19:35:00
2:55 PM,87.8,66.2,49,30.03,10.0,SW,11.5,18.4,N/A,,Clear,220,2013-06-16 19:55:00
3:15 PM,86.0,71.6,62,30.03,10.0,South,10.4,-,N/A,,Clear,180,2013-06-16 20:15:00
3:35 PM,84.2,68.0,58,30.03,10.0,South,10.4,18.4,N/A,,Clear,190,2013-06-16 20:35:00
3:55 PM,84.2,68.0,58,30.02,10.0,SSW,6.9,-,N/A,,Clear,200,2013-06-16 20:55:00
4:15 PM,86.0,68.0,55,30.01,10.0,SSW,9.2,-,N/A,,Clear,210,2013-06-16 21:15:00
4:35 PM,86.0,69.8,58,30.01,10.0,SW,6.9,-,N/A,,Clear,230,2013-06-16 21:35:00
4:55 PM,84.2,69.8,62,30.00,10.0,SW,4.6,-,N/A,,Partly Cloudy,220,2013-06-16 21:55:00
5:15 PM,84.2,69.8,62,30.00,10.0,South,5.8,-,N/A,Thunderstorm,Scattered Clouds,180,2013-06-16 22:15:00
5:35 PM,77.0,73.4,89,30.04,3.0,WSW,12.7,23.0,N/A,Rain-Thunderstorm,Light Thunderstorms and Rain,250,2013-06-16 22:35:00
5:55 PM,73.4,71.6,94,30.04,3.0,NW,4.6,-,0.12,Rain-Thunderstorm,Light Rain,320,2013-06-16 22:55:00
6:15 PM,73.4,71.6,94,30.04,1.2,NE,10.4,-,0.13,Rain-Thunderstorm,Rain,40,2013-06-16 23:15:00
6:35 PM,73.4,71.6,94,30.06,3.0,South,10.4,-,0.17,Rain-Thunderstorm,Light Thunderstorms and Rain,170,2013-06-16 23:35:00
6:55 PM,71.6,69.8,94,30.09,2.5,SW,8.1,-,0.22,Rain-Thunderstorm,Light Rain,220,2013-06-16 23:55:00
7:15 PM,71.6,68.0,88,30.08,1.2,West,9.2,-,0.16,Rain-Thunderstorm,Rain,260,2013-06-17 00:15:00
7:35 PM,69.8,68.0,94,30.07,3.0,Calm,Calm,-,0.24,Rain,Rain,0,2013-06-17 00:35:00
7:55 PM,71.6,69.8,94,30.05,6.0,Calm,Calm,-,0.25,Rain-Thunderstorm,Light Rain,0,2013-06-17 00:55:00
8:15 PM,71.6,69.8,94,30.05,8.0,South,3.5,-,N/A,Rain-Thunderstorm,Light Rain,180,2013-06-17 01:15:00
8:35 PM,71.6,69.8,94,30.05,3.0,South,4.6,-,0.04,Rain,Light Rain,170,2013-06-17 01:35:00
8:55 PM,71.6,68.0,88,30.06,10.0,Calm,Calm,-,0.04,,Overcast,0,2013-06-17 01:55:00
9:15 PM,71.6,69.8,94,30.06,10.0,Calm,Calm,-,N/A,,Overcast,0,2013-06-17 02:15:00
9:35 PM,71.6,68.0,88,30.06,10.0,Calm,Calm,-,N/A,Thunderstorm,Mostly Cloudy,0,2013-06-17 02:35:00
9:55 PM,71.6,68.0,88,30.06,9.0,Calm,Calm,-,N/A,,Mostly Cloudy,0,2013-06-17 02:55:00
10:15 PM,71.6,69.8,94,30.06,10.0,NNW,3.5,-,N/A,,Overcast,330,2013-06-17 03:15:00
10:35 PM,69.8,68.0,94,30.05,9.0,Calm,Calm,-,N/A,,Mostly Cloudy,0,2013-06-17 03:35:00
10:55 PM,69.8,69.8,100,30.05,6.0,Calm,Calm,-,N/A,,Mostly Cloudy,0,2013-06-17 03:55:00
11:15 PM,69.8,69.8,100,30.05,6.0,Calm,Calm,-,N/A,,Mostly Cloudy,0,2013-06-17 04:15:00
11:35 PM,69.8,68.0,94,30.05,8.0,Calm,Calm,-,N/A,,Mostly Cloudy,0,2013-06-17 04:35:00
11:55 PM,71.6,69.8,94,30.05,8.0,Calm,Calm,-,N/A,,Mostly Cloudy,0,2013-06-17 04:55:00